Other Public Products
Issued by NWS Grand Forks, ND

Home | Current Version | Previous Version | Graphics & Text | Print | Product List | Glossary On
Versions: 1 2 3 4 5 6 7 8 9 10 11 12 13 14 15 16 17 18 19 20 21 22 23 24 25 26 27 28 29 30 31 32 33 34 35 36 37 38 39 40 41 42 43 44 45 46 47 48 49 50
000
FPUS83 KFGF 041110
OPUFGF
PRAIRIE TO PINES WEATHER ROUNDUP
NATIONAL WEATHER SERVICE EASTERN NORTH DAKOTA/GRAND FORKS ND
500 AM CST SUN DEC 04 2016

 **SATELLITE DATA USED TO AUGMENT SKY COVER AT AUTOMATED STATIONS**
 *****  WEATHER ACROSS EASTERN NORTH DAKOTA  *****

CITY           SKY/WX    TMP DP  RH WIND       PRES   REMARKS
GRAND FORKS    LGT SNOW  34  31  88 S15       29.74F FOG     WCI  24
GRAND FORKS AF LGT RAIN  33  32  98 S13       29.74F FOG     WCI  24
GRAND CITY NWS   N/A     32 N/A N/A S12         N/A  WCI  23
BUXTON         NOT AVBL
DEVILS LAKE    CLOUDY    32  29  88 SW12      29.69F WCI  23
FARGO          LGT SNOW  35  32  88 S15       29.78F FOG
WAHPETON ARPT  PTSUNNY   32  32 100 SE15G21   29.81F WCI  22
$$

 *****  WEATHER ACROSS CENTRAL AND WESTERN NORTH DAKOTA  *****

CITY           SKY/WX    TMP DP  RH WIND       PRES   REMARKS
JAMESTOWN      CLOUDY    31  28  89 S6        29.71F
BISMARCK       CLOUDY    33  29  85 W16       29.76S WCI  23
MINOT          CLOUDY    29  25  85 W20       29.71S WCI  16
MINOT AFB      CLOUDY    27  25  93 NW21      29.70S WCI  13
GARRISON         N/A     31  28  89 NW20      29.72S WCI  19
WILLISTON      CLEAR     30  26  85 W9        29.76F WCI  22
DICKINSON      CLOUDY    25  20  81 W17       29.76R WCI  12
HETTINGER      CLEAR     24  18  77 W17       29.82F WCI  11
$$

 *****  OTHER OBSERVATIONS NORTHEAST NORTH DAKOTA  *****

CITY           SKY/WX    TMP DP  RH WIND       PRES   REMARKS
WALHALLA       MIX PCPN  32  32 100 SE15      29.70F WCI  22
LANGDON        CLOUDY    32  32 100 S14       29.66F FOG     WCI  22
CAVALIER         N/A     32  32 100 SE9       29.72F FOG     WCI  24
GRAFTON        LGT SNOW  32  32 100 S14       29.75F WCI  22
CANDO          LGT SNOW  32  32 100 W9        29.69F WCI  24
FORT TOTTEN      N/A     30  30 100 SW5       29.95S
ROLLA          LGT SNOW  27  27 100 SW5       29.65S WCI  21
RUGBY            N/A     27  25  93 W20       29.68F WCI  13
 ***** THE ABOVE OBSERVATIONS ARE NON NWS ARE NOT QUALITY
        CONTROLLED AND MAY MIS-REPORT RAIN FOR SNOW...
$$

 *****  OTHER OBSERVATIONS SOUTHEAST NORTH DAKOTA *****

CITY           SKY/WX    TMP DP  RH WIND       PRES   REMARKS
COOPERSTOWN      N/A     32  32 100 S12       29.72F WCI  23
VALLEY CITY    LGT SNOW  32  32 100 SW12      29.75F WCI  23
OAKES          NOT AVBL
GWINNER          N/A     34  32  93 S14       29.77F WCI  24
BUFFALO        NOT AVBL
WYNDMERE       NOT AVBL
 ***** THE ABOVE OBSERVATIONS ARE NON NWS ARE NOT QUALITY
       CONTROLLED AND MAY MIS-REPORT RAIN FOR SNOW...
$$

  *****  WEATHER ACROSS NORTHERN MINNESOTA  *****

CITY           SKY/WX    TMP DP  RH WIND       PRES   REMARKS
FLAG ISLAND    CLOUDY    28  27  93 SE16      29.85F WCI  17
WARROAD        CLOUDY    30  27  86 SE10      29.83F WCI  21
ROSEAU         CLOUDY    32  27  80 SE12      29.81F WCI  23
HALLOCK        CLOUDY    34  34 100 SE15      29.75F FOG     WCI  24
THF RVR FALLS  CLOUDY    32  30  92 SE14      29.79F WCI  22
HALSTAD          N/A     34  32  93 S20         N/A  WCI  22
FOSSTON        CLOUDY    30  28  93 SE10G17   29.81F WCI  21
BAUDETTE       CLOUDY    27  24  89 SE12      29.86F WCI  17
WASKISH        CLOUDY    28  27  93 SE8       29.87F WCI  20
CROOKSTON      CLOUDY    34  34 100 S15       29.78F FOG     WCI  24
$$
  *****  WEATHER ACROSS CENTRAL AND WEST MINNESOTA  *****

CITY           SKY/WX    TMP DP  RH WIND       PRES   REMARKS
BEMIDJI        CLOUDY    29  28  97 SE13G18   29.85F FOG     WCI  18
PARK RAPIDS    CLOUDY    31  27  85 SE15      29.85F FOG     WCI  20
WADENA         LGT RAIN  30  30 100 SE9       29.85F WCI  22
DETROIT LAKES  CLOUDY    34  32  93 S13       29.82F FOG     WCI  25
MOORHEAD       CLOUDY    34  30  86 S20       29.80F FOG     WCI  22
FERGUS FALLS   CLOUDY    34  34 100 S15       29.87F WCI  24
ELBOW LAKE     CLOUDY    32  32  99 S14       29.85F WCI  22
MORRIS MN      MOCLDY    34  32  93 S13       29.85F FOG     WCI  25
STAPLES        CLOUDY    28  28 100 SE8       29.88F WCI  20
WHEATON        NOT AVBL
$$
  *****  WEATHER ELSEWHERE ACROSS MINNESOTA  *****

CITY           SKY/WX    TMP DP  RH WIND       PRES   REMARKS
DULUTH         LGT SNOW  27  25  92 SE13      29.99F FOG     WCI  16
INTRNTL FALLS  CLOUDY    26  24  92 SE8       29.93F FOG     WCI  18
ELY            LGT SNOW  25  23  93 SE7       29.99F WCI  17
CLOQUET        LGT SNOW  27  25  93 SE5       29.98F WCI  21
BRAINERD       CLOUDY    29  28  96 SE9       29.91F FOG     WCI  20
HIBBING        LGT SNOW  25  23  92 SE9       29.96F FOG     WCI  15
ALEXANDRIA     CLOUDY    33  33 100 S13       29.86F FOG     WCI  24
SAINT CLOUD    CLOUDY    31  31 100 SE9       29.94F FOG     WCI  23
MINNEAPOLIS    LGT SNOW  32  29  88 SE10      29.99F FOG     WCI  24
$$

  *****  WEATHER ACROSS SOUTH DAKOTA  *****

CITY           SKY/WX    TMP DP  RH WIND       PRES   REMARKS
SIOUX FALLS    CLOUDY    33  33 100 S9        29.88F
BROOKINGS      CLOUDY    32  30  92 S15       29.84F WCI  22
WATERTOWN      CLOUDY    31  30  96 S17       29.81F WCI  19
HURON          MOCLDY    29  26  89 SW8       29.85F WCI  21
SISSETON         N/A     35  31  85 S12       29.80F
ABERDEEN       MIX PCPN  30  26  85 SW5       29.80F
MITCHELL       CLOUDY    31  26  82 SW7       29.89F WCI  24
PIERRE         CLEAR     32  24  72 W10       29.86S WCI  24
MOBRIDGE       CLEAR     31  23  72 W12       29.79S WCI  22
RAPID CITY     CLEAR     20  15  81 NW6       29.89F WCI  12
$$

  *****  SOME WEATHER IN NEARBY STATES *****

CITY           SKY/WX    TMP DP  RH WIND       PRES   REMARKS
GLASGOW MT     CLEAR     24  20  84 W7        29.79F WCI  16
GREAT FALLS MT CLOUDY    32  21  64 SW17      29.78F WCI  21
CHEYENNE WY    CLEAR     25   8  48 VRB3      29.96F
SCOTTSBLUFF NE CLEAR     20  12  71 NW7       30.00F WCI  11
OMAHA NE       CLOUDY    34  30  85 W6        30.00F
DES MOINES IA  LGT SNOW  35  34  96 S13       30.02F FOG
DAVENPORT IA   LGT SNOW  32  28  85 SE9       30.13F FOG     WCI  24
CHICAGO IL     CLOUDY    30  25  81 SE3       30.18F
EAU CLAIRE WI  LGT SNOW  30  28  92 SE7       30.06F FOG     WCI  23
LA CROSSE WI   LGT SNOW  33  31  92 SE7       30.09F FOG
$$

  *****  SOME NATIONAL WEATHER *****

CITY           SKY/WX    TMP DP  RH WIND       PRES   REMARKS
LA GUARDIA NY  CLOUDY    42  26  53 N10       30.19S
RALEIGH NC     CLOUDY    42  31  64 NE5       30.27F
ATLANTA GA     LGT RAIN  46  43  89 E13       30.13F
NEW ORLEANS LA RAIN      62  62 100 N7        29.89S FOG
OKLAHOMA CITY  CLOUDY    44  43  96 NW6       30.03S
ALBUQUERQUE NM CLOUDY    29  16  58 N8        30.12S WCI  21
SALT LAKE CITY PTCLDY    29  20  69 SE13      30.20F WCI  19
LOS ANGELES CA CLEAR     50  30  46 E5        30.06F
BOISE ID       CLOUDY    40  28  62 E8        30.08F
SEATTLE WA     CLOUDY    44  41  89 W7        30.01R
$$

*** WEATHER ACROSS MANITOBA...SASKATCHEWAN AND ONTARIO ***
                ***ONTARIO***

CITY           SKY/WX    TMP DP  RH WIND       PRES   REMARKS
GERALDTON      LGT SNOW  19  18  93 SE7       30.14F WCI  10
THUNDER BAY    CLOUDY    28  28 100 CALM      30.09F
SIOUX LOOKOUT  PTCLDY    25  21  86 S7        29.97F WCI  17
TORONTO        MOCLDY    34  25  69 N5        30.23F
BIG TROUT LK   MOCLDY    18  16  93 S14       30.02F WCI   4
PICKLE LAKE    CLOUDY    21  19  93 S8        30.00  WCI  12
DRYDEN         FLURRIES  25  23  93 SE10      29.92F WCI  15
KENORA         FLURRIES  27  23  86 SE10G17   29.87F WCI  17
$$
                *** MANITOBA***

CITY           SKY/WX    TMP DP  RH WIND       PRES   REMARKS
BRANDON        LGT SNOW  28  27  93 NW2       29.66F VSB 1
DAUPHIN        LGT SNOW  28  27  93 SE2       29.68F
ISLAND LAKE    NOT AVBL
PILOT MOUND      N/A     30  30 100 S10         N/A  WCI  21
THE PAS        FOG       27  25  93 VRB2      29.67F VSB 1/2
THOMPSON       LGT SNOW  19  18  93 E5        29.78F WCI  13
WINNIPEG       CLOUDY    30  28  93 SE16      29.76F WCI  19
LYNN LAKE      FLURRIES  19  19 100 SE7       29.66F WCI  10
CHURCHILL      FLURRIES   9   7  92 S10       29.95F WCI  -6
GILLAM         LGT SNOW  10   7  85 SE3       29.91F
$$
                ***SASKATCHEWAN***

CITY           SKY/WX    TMP DP  RH WIND       PRES   REMARKS
ESTEVAN        NOT AVBL
KINDERSLEY     MOCLDY    10   7  85 S7        29.66F WCI   0
LLOYDMINSTER   CLEAR     19  14  79 W12       29.62F WCI   7
PRINCE ALBERT  CLOUDY    23  23 100 W7        29.65F WCI  15
REGINA         CLOUDY    25  25 100 W10       29.71F WCI  15
YORKTON        CLOUDY    25  25 100 NW7       29.67F FOG     WCI  17
N. BATTLEFORD  CLOUDY    16  16 100 CALM      29.67F   C1F1C2F2C3F3C4F4C5F5C6F6C7F7C8F8C9F9CaFaCbFbCcFcCdFdCe!



USA.gov is the U.S. government's official web portal to all federal, state and local government web resources and services.